(192751) = 1999 TF255

Discovered at Kitt Peak on 1999-10-09 by Spacewatch.

Orbit

Orbit type: Main Belt

Note: WebGL enabled browser required.

epoch2024-03-31.0
epoch JD2460400.5
perihelion date2021-11-18.19742
perihelion JD2459536.69742
argument of perihelion (°)104.78793
ascending node (°)250.14638
inclination (°)0.93542
eccentricity0.0874747
perihelion distance (AU)2.4621045
Tisserand w.r.t. Jupiter3.4
ΔV w.r.t. Earth (km/sec)9.8
semimajor axis (AU)2.6981219
mean anomaly (°)192.09939
mean daily motion (°/day)0.22238810
aphelion distance (AU)2.934
period (years)4.43
P-vector [x]0.99597291
P-vector [y]-0.08725039
P-vector [z]-0.02062340
Q-vector [x]0.08832994
Q-vector [y]0.91554538
Q-vector [z]0.39239582
absolute magnitude16.27
phase slope0.15
uncertainty0
referenceMPEC 2024-F14
observations used549
oppositions16
arc length (days)9402
first opposition used1998
last opposition used2024
residual rms (arc-secs)0.77
perturbers coarse indicatorM-v
perturbers precise indicator003Ek
first observation date used1998-06-20.0
last observation date used2024-03-17.0
computer nameMPCLINUX
JD of orbit computation2456731.461823
perihelion JD uncertainty (days)1.2704E-04
argument of perihelion uncertainty (°)4.9025E-04
ascending node uncertainty (°)4.8940E-04
inclination uncertainty (°)5.0450E-06
eccentricity uncertainty 7.8799E-08
perihelion distance uncertainty (AU)2.1003E-07
Minimum Orbit Intersection Distances (in AU)
for orbit epoch: 2460400.5, reference: E2024-GB3
Mercury2.083
Venus1.73806
Earth1.45724
Mars1.06564
Jupiter2.42698
Saturn6.28217
Uranus15.5097
Neptune27.2775

Observations

569 total observations over interval: 1998 06 20.15643 – 2024 03 17.515802
These data are available for download (format description).

Date (UT) J2000 RA J2000 Dec Magn Location Ref
1998 06 20.15643 15 13 03.23 -18 06 14.2 21.1 V 691 – Steward Observatory, Kitt Peak-Spacewatch MPS 59640
1998 06 20.17908 15 13 02.96 -18 06 06.1 19.1 V 691 – Steward Observatory, Kitt Peak-Spacewatch MPS 59640
1998 06 20.20106 15 13 01.96 -18 06 07.6 20.5 V 691 – Steward Observatory, Kitt Peak-Spacewatch MPS 59640
1999 09 14.26811 23 36 58.74 -00 48 46.7 19.5   704 – Lincoln Laboratory ETS, New Mexico MPS 27603
1999 09 14.28080 23 36 58.13 -00 48 52.1 19.6   704 – Lincoln Laboratory ETS, New Mexico MPS 27603
1999 09 14.29355 23 36 57.45 -00 48 55.5 20.0   704 – Lincoln Laboratory ETS, New Mexico MPS 27603
1999 09 14.30640 23 36 56.86 -00 49 00.6 19.7   704 – Lincoln Laboratory ETS, New Mexico MPS 27603
1999 10 02.23577 23 23 00.65 -02 23 03.9 19.0 V 691 – Steward Observatory, Kitt Peak-Spacewatch MPS 27603
1999 10 02.25983 23 22 59.60 -02 23 10.8 19.0 V 691 – Steward Observatory, Kitt Peak-Spacewatch MPS 27603
1999 10 02.28116 23 22 58.68 -02 23 17.0 19.0 V 691 – Steward Observatory, Kitt Peak-Spacewatch MPS 27603
1999 10 09.15060 23 18 42.42 -02 53 41.5 19.2 V 691 – Steward Observatory, Kitt Peak-Spacewatch MPS 15453
1999 10 09.17206 23 18 41.67 -02 53 46.8 19.2 V 691 – Steward Observatory, Kitt Peak-Spacewatch MPS 15453
1999 10 09.19323 23 18 40.92 -02 53 51.9 19.2 V 691 – Steward Observatory, Kitt Peak-Spacewatch MPS 15453
1999 10 15.16335 23 15 46.87 -03 15 30.0 20.2 V 691 – Steward Observatory, Kitt Peak-Spacewatch MPS 15453
1999 10 15.19858 23 15 45.93 -03 15 36.7 20.5 V 691 – Steward Observatory, Kitt Peak-Spacewatch MPS 15453
1999 10 15.24396 23 15 44.72 -03 15 44.9 20.5 V 691 – Steward Observatory, Kitt Peak-Spacewatch MPS 15453
1999 11 11.07385 23 14 02.67 -03 43 09.6 20.8 V 691 – Steward Observatory, Kitt Peak-Spacewatch MPS 27603
1999 11 11.09731 23 14 03.03 -03 43 08.3 20.9 V 691 – Steward Observatory, Kitt Peak-Spacewatch MPS 27603
1999 11 11.11877 23 14 03.39 -03 43 06.9 20.9 V 691 – Steward Observatory, Kitt Peak-Spacewatch MPS 27603
2002 04 04.37768 13 06 04.25 -08 16 10.7 20.6   644 – Palomar Mountain/NEAT MPS 59640
2002 04 04.38802 13 06 03.70 -08 16 07.7 20.3   644 – Palomar Mountain/NEAT MPS 59640
2002 04 04.39855 13 06 03.19 -08 16 04.4 20.4   644 – Palomar Mountain/NEAT MPS 59640
2002 04 12.30214 12 59 27.48 -07 34 03.7 19.3   704 – Lincoln Laboratory ETS, New Mexico MPS 59640
2002 04 12.31633 12 59 26.69 -07 33 58.7 19.7   704 – Lincoln Laboratory ETS, New Mexico MPS 59640
2002 04 12.34715 12 59 25.18 -07 33 48.9 20.0   704 – Lincoln Laboratory ETS, New Mexico MPS 59640
2002 05 17.14646 12 38 23.52 -05 08 25.7 21.9 V 291 – LPL/Spacewatch II MPS 59640
2002 05 17.17176 12 38 23.11 -05 08 22.0 22.2 V 291 – LPL/Spacewatch II MPS 59640
2002 05 17.19297 12 38 22.68 -05 08 19.8 22.2 V 291 – LPL/Spacewatch II MPS 59640
2006 01 22.44362 11 13 14.97 +03 38 45.5 21.3 V 691 – Steward Observatory, Kitt Peak-Spacewatch MPS 160181
2006 01 22.46090 11 13 14.66 +03 38 47.5 21.2 V 691 – Steward Observatory, Kitt Peak-Spacewatch MPS 160181
2006 01 22.47819 11 13 14.32 +03 38 48.8 20.8 V 691 – Steward Observatory, Kitt Peak-Spacewatch MPS 160181
2006 01 26.42505 11 11 54.07 +03 45 38.5 20.7 V 691 – Steward Observatory, Kitt Peak-Spacewatch MPS 160181
2006 01 26.44231 11 11 53.60 +03 45 40.9 20.6 V 691 – Steward Observatory, Kitt Peak-Spacewatch MPS 160181
2006 01 26.45964 11 11 53.20 +03 45 42.5 20.3 V 691 – Steward Observatory, Kitt Peak-Spacewatch MPS 160181
2006 01 28.36806 11 11 06.72 +03 49 51.6 21.2 V G96 – Mt. Lemmon Survey MPS 161573
2006 01 28.37395 11 11 06.61 +03 49 52.5 20.7 V G96 – Mt. Lemmon Survey MPS 161573
2006 01 28.37985 11 11 06.39 +03 49 52.9 20.8 V G96 – Mt. Lemmon Survey MPS 161573
2006 01 28.38588 11 11 06.25 +03 49 53.3 21.0 V G96 – Mt. Lemmon Survey MPS 161573
2006 02 02.39113 11 08 41.06 +04 03 16.9 20.8 V 691 – Steward Observatory, Kitt Peak-Spacewatch MPS 161573
2006 02 02.40844 11 08 40.47 +04 03 20.4 20.8 V 691 – Steward Observatory, Kitt Peak-Spacewatch MPS 161573
2006 02 02.42576 11 08 39.90 +04 03 23.6 20.8 V 691 – Steward Observatory, Kitt Peak-Spacewatch MPS 161573
2006 02 07.44213 11 05 43.54 +04 20 12.1   691 – Steward Observatory, Kitt Peak-Spacewatch MPS 162678
2006 02 07.46291 11 05 42.74 +04 20 16.4   691 – Steward Observatory, Kitt Peak-Spacewatch MPS 162678
2006 02 07.48025 11 05 42.02 +04 20 20.5   691 – Steward Observatory, Kitt Peak-Spacewatch MPS 162678
2006 02 23.33855 10 53 49.81 +05 30 45.6 20.5 V G96 – Mt. Lemmon Survey MPS 163565
2006 02 23.34531 10 53 49.52 +05 30 47.5 20.2 V G96 – Mt. Lemmon Survey MPS 163565
2006 02 23.35223 10 53 49.20 +05 30 50.1 20.0 V G96 – Mt. Lemmon Survey MPS 163565
2006 02 23.35900 10 53 48.84 +05 30 52.3 19.9 V G96 – Mt. Lemmon Survey MPS 163565
2008 09 10.40294 01 00 38.15 +07 56 36.3   691 – Steward Observatory, Kitt Peak-Spacewatch MPS 256499
2008 09 10.42051 01 00 37.50 +07 56 33.2   691 – Steward Observatory, Kitt Peak-Spacewatch MPS 256499
2008 09 10.43809 01 00 36.91 +07 56 29.8   691 – Steward Observatory, Kitt Peak-Spacewatch MPS 256499
2008 09 21.19468 00 53 37.01 +07 13 39.3 19.9 V 691 – Steward Observatory, Kitt Peak-Spacewatch MPS 256499
2008 09 21.21225 00 53 36.23 +07 13 34.6 19.7 V 691 – Steward Observatory, Kitt Peak-Spacewatch MPS 256499
2008 09 21.22983 00 53 35.44 +07 13 29.5 19.7 V 691 – Steward Observatory, Kitt Peak-Spacewatch MPS 256499
2008 09 24.28469 00 51 15.72 +06 58 46.5 19.9   704 – Lincoln Laboratory ETS, New Mexico MPS 256499
2008 09 24.29663 00 51 15.11 +06 58 43.7 20.0   704 – Lincoln Laboratory ETS, New Mexico MPS 256499
2008 09 24.30859 00 51 14.57 +06 58 40.4 20.2   704 – Lincoln Laboratory ETS, New Mexico MPS 256499
2008 09 24.32055 00 51 13.99 +06 58 36.3 20.1   704 – Lincoln Laboratory ETS, New Mexico MPS 256499
2008 09 24.33253 00 51 13.40 +06 58 33.2 20.0   704 – Lincoln Laboratory ETS, New Mexico MPS 256499
2008 09 30.28190 00 46 25.62 +06 27 37.1 19.3   704 – Lincoln Laboratory ETS, New Mexico MPS 257721
2008 09 30.29411 00 46 25.07 +06 27 33.8 20.0   704 – Lincoln Laboratory ETS, New Mexico MPS 257721
2008 09 30.30633 00 46 24.38 +06 27 29.0 19.6   704 – Lincoln Laboratory ETS, New Mexico MPS 257721
2008 09 30.31865 00 46 23.80 +06 27 25.1 19.8   704 – Lincoln Laboratory ETS, New Mexico MPS 257721
2008 09 30.33095 00 46 23.09 +06 27 21.0 20.0   704 – Lincoln Laboratory ETS, New Mexico MPS 257721
2008 09 30.97833 00 45 51.13 +06 23 50.3 19.1 V J75 – OAM Observatory, La Sagra MPS 259069
2008 09 30.99163 00 45 50.47 +06 23 45.7 19.3 V J75 – OAM Observatory, La Sagra MPS 259069
2008 10 01.00487 00 45 49.78 +06 23 41.6 19.2 V J75 – OAM Observatory, La Sagra MPS 259069
2008 10 02.96015 00 44 12.36 +06 13 00.5 19.1 V J75 – OAM Observatory, La Sagra MPS 259069
2008 10 02.97348 00 44 11.72 +06 12 55.9 19.2 V J75 – OAM Observatory, La Sagra MPS 259069
2008 10 02.98683 00 44 11.04 +06 12 52.2 19.1 V J75 – OAM Observatory, La Sagra MPS 259069
2008 10 03.24983 00 43 57.97 +06 11 25.5 19.2 V G96 – Mt. Lemmon Survey MPS 257721
2008 10 03.25461 00 43 57.72 +06 11 24.1 19.0 V G96 – Mt. Lemmon Survey MPS 257721
2008 10 03.25890 00 43 57.46 +06 11 22.6 19.1 V G96 – Mt. Lemmon Survey MPS 257721
2008 10 03.26678 00 43 57.07 +06 11 20.0 19.1 V G96 – Mt. Lemmon Survey MPS 257721
2008 10 10.15626 00 38 15.92 +05 33 11.5 19.4 V 691 – Steward Observatory, Kitt Peak-Spacewatch MPS 259069
2008 10 10.17387 00 38 15.04 +05 33 05.7 19.3 V 691 – Steward Observatory, Kitt Peak-Spacewatch MPS 259069
2008 10 10.19150 00 38 14.14 +05 33 00.1 19.3 V 691 – Steward Observatory, Kitt Peak-Spacewatch MPS 259069
2008 10 17.25151 00 32 45.45 +04 55 08.2 19.7 V 691 – Steward Observatory, Kitt Peak-Spacewatch MPS 260211
2008 10 17.28841 00 32 43.75 +04 54 56.7 19.6 V 691 – Steward Observatory, Kitt Peak-Spacewatch MPS 260211
2008 10 17.32531 00 32 41.99 +04 54 45.1 19.3 V 691 – Steward Observatory, Kitt Peak-Spacewatch MPS 260211
2008 10 19.09652 00 31 25.95 +04 45 44.7 19.8 V 691 – Steward Observatory, Kitt Peak-Spacewatch MPS 260477
2008 10 19.11230 00 31 25.28 +04 45 39.4 19.7 V 691 – Steward Observatory, Kitt Peak-Spacewatch MPS 260477
2008 10 19.12806 00 31 24.55 +04 45 35.4 19.6 V 691 – Steward Observatory, Kitt Peak-Spacewatch MPS 260477
